[[{"header":{"parameterUnit":"m.s-1","parameterCategory":1,"la1":30.2991,"la2":30.254,"lo1":-89.0895,"lo2":-89.0444,"dy":0.0017,"dx":0.0017,"nx":28,"ny":28,"refTime":"2023-09-03T03:00:00:Z","depth":0,"parameterNumber":2,"parameterNumberName":"U-component_of_WINDS"},"data":[0,0,0,0,0,0,0,0,0,0,0,0,0,0,0,0,0,0,0,0,0,0,0,0,0,0,0,0,0,0,0,0,0,0,0,0,0,0,0,0,0,0,0,0,0,0,0,0,0,0,0,0,0,0,0,0,0,0,-3.3331,-3.3332,0,-3.3381,-3.3382,-3.3383,-3.3351,-3.3349,-3.3348,-3.3346,-3.3399,-3.3401,-3.3404,0,0,0,0,0,0,0,0,0,0,0,0,0,-3.3209,-3.3211,-3.3331,-3.3332,-3.3332,-3.3381,-3.3382,-3.3383,-3.3351,-3.3349,-3.3347,-3.3345,-3.3398,-3.3401,-3.3404,0,0,0,0,0,0,0,0,0,0,0,0,0,-3.3261,-3.3212,-3.3331,-3.3322,-3.3322,-3.3381,-3.3382,-3.3383,-3.3351,-3.3349,-3.3347,-3.3345,-3.3397,-3.3401,-3.3405,-3.3476,0,0,-3.3418,-3.342,0,0,0,0,0,0,0,0,-3.3258,-3.3265,-3.3323,-3.3323,-3.3323,-3.3357,-3.3358,-3.3414,-3.3352,-3.334,-3.3346,-3.3343,-3.3387,-3.3392,-3.3406,-3.3478,-3.348,-3.3418,-3.3421,-3.3422,-3.3424,0,0,0,0,0,0,0,-3.3254,-3.3263,-3.3351,-3.3324,-3.3324,-3.3316,-3.3321,-3.3369,-3.3376,-3.3341,-3.3339,-3.3345,-3.3386,-3.3402,-3.3407,-3.3481,-3.3418,-3.3422,-3.3424,-3.3426,-3.3613,-3.3616,0,0,0,0,0,0,-3.3251,-3.326,-3.3349,-3.3352,-3.3284,-3.332,-3.3326,-3.3349,-3.3375,-3.3377,-3.3347,-3.3343,-3.3396,-3.3402,-3.3409,-3.3493,-3.3422,-3.3426,-3.3429,-3.3611,-3.3614,-3.3617,0,0,0,0,0,0,-3.3249,-3.3259,-3.3347,-3.3306,-3.3316,-3.3325,-3.3351,-3.3351,-3.3366,-3.3379,-3.3381,-3.3362,-3.3395,-3.3403,-3.3459,-3.3494,-3.3428,-3.3432,-3.3608,-3.3612,-3.3615,-3.3661,0,0,0,0,0,0,-3.3245,-3.3259,-3.3285,-3.3307,-3.3319,-3.3396,-3.3353,-3.3353,-3.3374,-3.3369,-3.3393,-3.3395,-3.3393,-3.3453,-3.3463,-3.3499,-3.3435,-3.3605,-3.361,-3.3614,-3.3657,-3.3666,-3.3674,0,0,0,0,0,-3.3241,-3.3297,-3.3287,-3.3298,-3.3352,-3.3399,-3.3405,-3.3402,-3.3377,-3.3403,-3.3412,-3.3395,-3.3489,-3.3459,-3.347,-3.3507,-3.3603,-3.3608,-3.3614,-3.3653,-3.3664,-3.3674,0,0,0,0,0,0,-3.328,-3.3299,-3.3289,-3.3353,-3.3374,-3.3393,-3.3427,-3.3414,-3.3444,-3.3439,-3.3433,-3.3439,-3.3497,-3.3508,-3.3475,-3.3577,-3.3542,-3.355,-3.3567,-3.3579,-3.3587,-3.3583,-3.3439,0,0,0,0,0,-3.3296,-3.3331,-3.3347,-3.3402,-3.3413,-3.3418,-3.3438,-3.3434,-3.3456,-3.3465,-3.3477,-3.35,-3.3535,-3.3557,-3.359,-3.3659,-3.3663,-3.369,-3.3699,-3.3706,-3.3712,-3.3749,-3.376,-3.3635,-3.3635,-3.3635,0,0,-3.3329,-3.3344,-3.3367,-3.341,-3.3426,-3.3463,-3.3426,-3.3467,-3.3495,-3.3471,-3.3524,-3.3535,-3.356,-3.3622,-3.365,-3.3633,-3.3748,-3.3713,-3.3718,-3.3721,-3.3755,-3.3767,-3.3778,-3.3639,-3.3638,-3.3637,0,0,-3.3408,-3.3424,-3.347,-3.3487,-3.3512,-3.3515,-3.3527,-3.3548,-3.3554,-3.3607,-3.359,-3.3623,-3.3683,-3.3701,-3.3719,-3.3805,-3.379,-3.3817,-3.3862,-3.3897,-3.3907,-3.3916,-3.3946,-3.3957,-3.3823,-3.3824,-3.3824,0,-3.3446,-3.3501,-3.3496,-3.3539,-3.3558,-3.3539,-3.3586,-3.3603,-3.3638,-3.3651,-3.3632,-3.3706,-3.3722,-3.3788,-3.3809,-3.3824,-3.3837,-3.3813,-3.3906,-3.3915,-3.3923,-3.3951,-3.3963,-3.3826,-3.3826,-3.3826,-3.3825,0,-3.3546,-3.3585,-3.362,-3.3653,-3.3677,-3.3722,-3.3724,-3.3748,-3.3742,-3.3748,-3.3802,-3.3821,-3.3856,-3.3872,-3.3866,-3.3937,-3.3926,-3.3906,-3.387,-3.3938,-3.3964,-3.3975,-3.383,-3.3829,-3.3829,-3.3828,0,0,-3.365,-3.368,-3.3693,-3.3708,-3.3734,-3.3764,-3.3808,-3.3842,-3.3863,-3.3888,-3.3925,-3.3976,-3.3958,-3.3978,-3.3974,-3.4006,-3.4072,-3.3982,-3.3983,-3.3997,-3.4151,-3.4164,-3.4177,-3.4063,-3.4065,-3.4067,-3.4148,0,-3.373,-3.3806,-3.3803,-3.3875,-3.391,-3.3892,-3.3931,-3.3951,-3.3958,-3.3989,-3.3997,-3.4033,-3.4007,-3.4018,-3.4049,-3.4058,-3.4103,-3.4052,-3.4097,-3.4098,-3.4089,-3.4191,-3.4205,-3.4281,-3.4159,-3.416,-3.4162,0,-3.3833,-3.386,-3.3935,-3.3955,-3.397,-3.4005,-3.4036,-3.4066,-3.4089,-3.4092,-3.4114,-3.4105,-3.415,-3.4115,-3.4177,-3.4142,-3.4161,-3.4168,-3.4171,-3.4174,-3.4133,-3.4195,-3.4305,-3.4316,-3.4178,-3.4177,-3.4176,0,-3.3899,-3.3955,-3.4007,-3.402,-3.4046,-3.407,-3.4082,-3.4103,-3.4124,-3.4152,-3.4165,-3.4198,-3.4216,-3.4242,-3.4243,-3.4217,-3.4305,-3.427,-3.4308,-3.4308,-3.4326,-3.4325,-3.4439,-3.4341,-3.4341,-3.4341,-3.434,0,-3.3988,-3.4034,-3.4037,-3.4069,-3.412,-3.4117,-3.4168,-3.4177,-3.4196,-3.4229,-3.4217,-3.4249,-3.4249,-3.4281,-3.4283,-3.4333,-3.4342,-3.4345,-3.4344,-3.4345,-3.4345,-3.4356,-3.435,-3.4344,-3.4343,-3.4342,-3.4342,0,-3.407,-3.4074,-3.4129,-3.4149,-3.4155,-3.4192,-3.4209,-3.4239,-3.4245,-3.4287,-3.4297,-3.4306,-3.4344,-3.4348,-3.4392,-3.4393,-3.4453,-3.4448,-3.4445,-3.4444,-3.4482,-3.4478,-3.4606,-3.4622,-3.4515,-3.4516,-3.4517,0,-3.4126,-3.4161,-3.4184,-3.4205,-3.4218,-3.4253,-3.4274,-3.4273,-3.4295,-3.4324,-3.4351,-3.4387,-3.4416,-3.4477,-3.4488,-3.4521,-3.4516,-3.4559,-3.4521,-3.452,-3.4515,-3.4512,-3.4516,-3.4566,-3.4567,-3.4568,-3.4569,0,-3.4224,-3.4224,-3.4254,-3.4286,-3.4311,-3.4336,-3.4359,-3.4377,-3.4379,-3.4405,-3.4443,-3.4465,-3.451,-3.4546,-3.4579,-3.4592,-3.4581,-3.4581,-3.4591,-3.4591,-3.4588,-3.4589,-3.4464,-3.4577,-3.4576,-3.4576,-3.4575,-3.4575,-3.4293,-3.4323,-3.4344,-3.4379,-3.4396,-3.4418,-3.4447,-3.4456,-3.4488,-3.4523,-3.4521,-3.4563,-3.4585,-3.4628,-3.4644,-3.4677,-3.4662,-3.4678,-3.4681,-3.4685,-3.4688,-3.4584,-3.4683,-3.4683,-3.4682,-3.4682,-3.4682,0,-3.4389,-3.4402,-3.4434,-3.4466,-3.4493,-3.448,-3.4505,-3.4529,-3.4566,-3.4587,-3.4616,-3.4659,-3.4694,-3.4708,-3.4742,-3.4766,-3.4762,-3.4775,-3.4773,-3.4776,-3.47,-3.4686,-3.4778,-3.4778,-3.4778,-3.4778,-3.4778,-3.4778,-3.4443,-3.4492,-3.4495,-3.4553,-3.4565,-3.4605,-3.4621,-3.4641,-3.4658,-3.4707,-3.4736,-3.4744,-3.4763,-3.4799,-3.483,-3.4833,-3.4846,-3.4862,-3.4862,-3.4791,-3.4781,-3.4772,-3.4759,-3.4865,-3.4865,-3.4935,-3.4936,-3.4937]},{"header":{"parameterUnit":"m.s-1","parameterCategory":1,"la1":30.2991,"la2":30.254,"lo1":-89.0895,"lo2":-89.0444,"dy":0.0017,"dx":0.0017,"nx":28,"ny":28,"refTime":"2023-09-03T03:00:00:Z","depth":0,"parameterNumber":3,"parameterNumberName":"V-component_of_WINDS"},"data":[0,0,0,0,0,0,0,0,0,0,0,0,0,0,0,0,0,0,0,0,0,0,0,0,0,0,0,0,0,0,0,0,0,0,0,0,0,0,0,0,0,0,0,0,0,0,0,0,0,0,0,0,0,0,0,0,0,0,4.8465,4.8465,0,4.8476,4.8476,4.8476,4.8431,4.843,4.8429,4.8427,4.8438,4.8439,4.8441,0,0,0,0,0,0,0,0,0,0,0,0,0,4.8403,4.8405,4.8465,4.8465,4.8465,4.8476,4.8476,4.8476,4.8431,4.843,4.8428,4.8427,4.8437,4.8439,4.8441,0,0,0,0,0,0,0,0,0,0,0,0,0,4.8424,4.8405,4.8465,4.8444,4.8442,4.8476,4.8476,4.8476,4.8432,4.843,4.8428,4.8426,4.8437,4.8439,4.8441,4.8495,0,0,4.8448,4.8449,0,0,0,0,0,0,0,0,4.8423,4.8426,4.8447,4.8446,4.8444,4.845,4.8458,4.8482,4.8432,4.8436,4.8427,4.8425,4.8443,4.8445,4.8451,4.8495,4.8495,4.8448,4.8449,4.845,4.8451,0,0,0,0,0,0,0,4.8421,4.8425,4.8469,4.8447,4.8445,4.8434,4.8434,4.8462,4.8451,4.8435,4.8432,4.8434,4.8442,4.8449,4.8451,4.8496,4.8448,4.845,4.8451,4.8452,4.8582,4.8584,0,0,0,0,0,0,4.8423,4.8425,4.8469,4.8469,4.8428,4.8436,4.8437,4.845,4.845,4.8448,4.8436,4.8432,4.8446,4.8449,4.8451,4.8512,4.845,4.8453,4.8454,4.858,4.8582,4.8585,0,0,0,0,0,0,4.8422,4.8427,4.8468,4.8446,4.845,4.844,4.8454,4.8451,4.8458,4.845,4.8448,4.8445,4.8445,4.8448,4.8484,4.8512,4.8454,4.8456,4.8577,4.8581,4.8584,4.8636,0,0,0,0,0,0,4.842,4.8427,4.8448,4.8447,4.8452,4.8501,4.8456,4.8453,4.8463,4.8458,4.8459,4.8457,4.8444,4.8481,4.8486,4.8514,4.8457,4.8575,4.8579,4.8583,4.8632,4.8641,4.8649,0,0,0,0,0,4.8418,4.8462,4.8449,4.8455,4.8478,4.8503,4.8506,4.849,4.8465,4.8485,4.848,4.8457,4.8509,4.8485,4.849,4.852,4.8573,4.8578,4.8582,4.8628,4.8639,4.8648,0,0,0,0,0,0,4.8467,4.8462,4.8447,4.8493,4.8499,4.8495,4.852,4.8502,4.8515,4.851,4.8489,4.8489,4.8528,4.8528,4.8501,4.8571,4.8536,4.8543,4.8569,4.858,4.8588,4.8586,4.8459,0,0,0,0,0,4.8483,4.8505,4.8499,4.854,4.8543,4.8532,4.8542,4.8529,4.8534,4.8536,4.8534,4.8539,4.8556,4.8568,4.8584,4.8632,4.8631,4.8655,4.8663,4.867,4.8675,4.8699,4.8709,4.86,4.86,4.86,0,0,4.8516,4.8516,4.8531,4.8549,4.8552,4.8574,4.8534,4.8559,4.8575,4.854,4.8573,4.8572,4.8576,4.8618,4.8636,4.8619,4.8705,4.8676,4.8682,4.8683,4.8705,4.8715,4.8724,4.8603,4.8603,4.8602,0,0,4.8588,4.8591,4.8624,4.8628,4.8633,4.8625,4.8633,4.8632,4.863,4.8663,4.8637,4.8655,4.8686,4.869,4.8696,4.8768,4.8747,4.8774,4.8816,4.884,4.8848,4.8856,4.888,4.8889,4.8779,4.8779,4.8779,0,4.8628,4.8661,4.8643,4.867,4.8678,4.8648,4.8681,4.8685,4.8695,4.8701,4.8682,4.8719,4.872,4.8761,4.8779,4.8786,4.8793,4.8773,4.8849,4.8856,4.8863,4.8885,4.8895,4.8782,4.8782,4.8782,4.8781,0,4.8709,4.8732,4.8758,4.8768,4.878,4.8809,4.8796,4.8809,4.8795,4.8789,4.8822,4.8823,4.8837,4.8846,4.8833,4.8885,4.8874,4.8852,4.8817,4.8876,4.8897,4.8906,4.8787,4.8786,4.8785,4.8784,0,0,4.8812,4.8811,4.8821,4.8824,4.8827,4.8844,4.8872,4.8886,4.8897,4.8906,4.8927,4.8954,4.8933,4.894,4.8927,4.8948,4.9003,4.8923,4.8923,4.8936,4.9059,4.9074,4.9085,4.899,4.8991,4.8993,4.9058,0,4.888,4.8928,4.8912,4.896,4.898,4.8951,4.8976,4.898,4.8975,4.899,4.8984,4.9003,4.8975,4.8979,4.8998,4.8992,4.9027,4.8988,4.9009,4.901,4.9007,4.9096,4.9112,4.9174,4.9066,4.9068,4.9069,0,4.8967,4.8977,4.9027,4.9025,4.9033,4.9055,4.9066,4.9082,4.9086,4.908,4.9088,4.907,4.9097,4.9063,4.9098,4.9071,4.9079,4.9078,4.908,4.908,4.9042,4.9096,4.9193,4.9202,4.9082,4.9081,4.908,0,4.9034,4.9061,4.9093,4.9098,4.9097,4.9113,4.9113,4.9115,4.9124,4.9134,4.9139,4.9152,4.9159,4.9169,4.9155,4.9132,4.9192,4.9157,4.9187,4.9188,4.92,4.9199,4.9297,4.9208,4.9208,4.9208,4.9208,0,4.9111,4.9142,4.9123,4.9143,4.9177,4.9159,4.9193,4.919,4.9192,4.921,4.9187,4.9204,4.9186,4.9201,4.9191,4.9221,4.9225,4.922,4.9217,4.9221,4.9222,4.9225,4.9219,4.921,4.921,4.9209,4.9209,0,4.9191,4.918,4.9214,4.921,4.921,4.9235,4.9231,4.9249,4.9242,4.9266,4.927,4.9259,4.9277,4.9264,4.9281,4.9274,4.9313,4.9305,4.9312,4.9309,4.9338,4.9335,4.9441,4.9453,4.9358,4.9359,4.936,0,4.9241,4.9264,4.9262,4.9273,4.9275,4.9292,4.9301,4.9284,4.9294,4.93,4.9317,4.9332,4.9343,4.9372,4.9365,4.9378,4.9369,4.9405,4.937,4.9374,4.9367,4.9365,4.9366,4.9411,4.9412,4.9413,4.9414,0,4.9329,4.9322,4.9335,4.9347,4.9358,4.9366,4.9373,4.9383,4.9366,4.9378,4.9395,4.9404,4.9421,4.9436,4.9446,4.9446,4.9427,4.9425,4.9432,4.9436,4.9439,4.9436,4.9329,4.9422,4.9422,4.9421,4.9421,4.942,4.9394,4.9412,4.9414,4.9429,4.9432,4.9438,4.9455,4.9449,4.9463,4.9476,4.9465,4.9485,4.9488,4.9499,4.9502,4.9517,4.9502,4.9513,4.9515,4.9518,4.9521,4.9438,4.9519,4.9519,4.9518,4.9518,4.9518,0,4.9479,4.9478,4.9493,4.9502,4.9514,4.9495,4.9501,4.9512,4.953,4.9534,4.9545,4.9564,4.9578,4.9573,4.9585,4.9598,4.959,4.9602,4.96,4.96,4.9535,4.9526,4.9609,4.9609,4.9609,4.9609,4.9609,4.9609,4.9524,4.9554,4.9547,4.9578,4.9577,4.9596,4.9601,4.9606,4.9609,4.9631,4.9642,4.9639,4.9638,4.965,4.9662,4.966,4.9665,4.968,4.9675,4.9614,4.9605,4.9596,4.9588,4.9682,4.9682,4.9738,4.9739,4.9739]}]]